Starlink 11350

operational
NORAD ID: 61540 Int'l Des: 2024-184 Owner: SPXS Country: US Constellation: starlink
LEOCIRCULAR

关于 Starlink 11350

正在加载描述...

实时位置

正在加载3D地球...

即将过境

高度历史

Altitude vs Time

uPlot chart will show altitude changes over time

两行轨道根数

1 61540U 24184J 25305.97748643 -.00001646 00000-0 -87397-5 0 9996
2 61540 53.1589 145.4744 0001260 92.3689 267.7473 15.69687455 60361
Epoch: Nov 1, 2025 • Age: 54 hours

当前状态

高度 370.8 km
速度 7.69 km/s
星下点 -33.63°S, 148.1°W
发射日期 Oct 15, 2024
运行时间 1 years
类型 internet

技术详情

分类 Payload
质量 960.00 kg
干质量 910.00 kg
总质量 960.00 kg
长度 0.30 m
直径 4.10 m
跨度 29.00 m
形状 Box + pan
制造商 SPXS
平台类型 Starlink V2MD
阶段状态 In Orbit
所有者/国家 SPXS/US

大型星座

Loading constellations...